SCP
0 0 0 0 0 0 0 0 0 0 0 0 0 0 0 0 0 0 0 0 0 0 0 0 0 0 0 0 0 0 0 0 0 -0 -0 0 0 0 0 0 0 0 0 0 0
0 0 0 0 0 0 0 0 0 0 0 0 0 0 0 0 0 0 0 0 0 0 0 0 0 0 0 0 0 0 0 -0 0 0 0 0 0 0 0 0 0 0 0 0 -0
0 0 0 0 0 0 0 0 0 0 0 0 0 0 0 0 0 0 0 0 0 0 0 0 0 0 0 0 0 0 0 0 0 0 0 0 0 0 0 0 0 -0 -0 -0 0
0 0 0 0 0 0 0 0 0 0 0 0 0 0 0 0 0 0 0 0 0 0 0 0 0 0 0 0 0 0 0 0 0 0 0 0 0 0 -0 -0 0 -0 -0 0 0
0 0 0 0 0 0 0 0 0 0 0 0 0 0 0 0 0 0 0 0 0 0 0 0 0 0 0 0 0 0 0 0 0 0 0 0 -0 -0 -0 -0 -0 0 0 0 0
0 0 0 0 0 0 0 0 0 0 0 0 0 0 0 0 0 0 0 0 0 0 0 0 0 0 0 0 0 0 -0 0 0 0 -0 0 -0 0 -0 0 0 0 0 0 0
0 0 0 0 0 0 0 0 0 0 0 0 0 0 0 0 0 0 0 0 0 0 0 0 0 0 0 0 0 -0 0 0 0 -0 0 0 -0 -0 -0 0 0 0 0 0 0
0 0 0 0 0 0 0 0 0 0 0 0 0 0 0 0 0 0 0 0 0 0 0 0 0 0 0 0 0 -0 -0 -0 0 0 -0 0 -0 0 0 0 0 0 0 0 0
0 0 0 0 0 0 0 0 0 0 0 0 0 0 0 0 0 0 0 0 0 0 0 0 0 0 0 0 -0 -0 0 0 0 0 0 0 -0 0 0 0 0 0 0 0 0
0 0 0 0 0 0 0 0 0 0 0 0 0 0 0 0 0 0 0 0 0 0 0 0 0 0 0 -0 0 0 0 0 -0 -0 0 0 -0 -0 0 0 0 0 0 0 0
0 0 0 0 0 0 0 0 0 0 0 0 0 0 0 0 0 0 0 0 0 0 0 0 -0 0 0 0 0 0 0 -0 -0 0 0 0 0 0 0 0 0 0 0 0 0
0 0 0 0 0 0 0 0 0 0 0 0 0 0 0 0 0 0 0 0 0 0 0 0 0 0 0 0 0 0 -0 -0 0 0 -0 -0 0 0 0 0 0 0 0 0 0
0 0 0 0 0 0 0 0 0 0 0 0 0 0 0 0 0 0 0 0 0 0 0 0 0 0 0 0 -0 -0 -0 -0 0 0 0 -0 0 0 0 0 0 0 0 0 0
0 0 0 0 -0 0 0 0 0 0 0 0 0 0 0 0 0 0 0 0 0 0 0 0 0 0 0 0 0 -0 -0 -0 -0 -0 0 0 0 0 0 0 0 0 0 0 0
0 0 0 -0 0 0 0 0 0 0 0 0 0 0 0 0 0 0 0 0 0 0 0 0 0 -0 0 -0 -0 -0 0 0 0 0 0 0 0 0 0 0 0 0 0 0 0
0 0 0 0 0 0 0 0 0 0 0 0 0 0 0 0 0 0 0 0 0 0 0 -0 0 0 0 0 0 0 0 0 0 0 0 0 0 0 0 0 0 0 0 0 0
0 0 0 0 0 0 0 0 0 0 0 0 0 0 0 0 0 0 0 -0 0 -0 -0 -0 0 0 0 0 0 0 0 -0 -0 0 0 0 0 0 0 0 0 0 0 0 0
0 0 0 0 0 0 0 0 0 0 0 0 0 0 0 0 0 0 0 -0 0 0 0 -0 -0 0 0 0 0 0 0 0 0 0 0 0 0 0 0 0 0 0 0 0 0
0 0 0 0 0 0 0 0 0 0 0 0 0 0 0 0 0 0 0 0 -0 0 -0 -0 0 0 0 0 0 0 0 0 0 0 0 0 0 0 0 0 0 0 0 0 0
0 0 0 0 0 0 0 0 0 0 0 0 0 0 0 -0 0 0 0 -0 -0 0 0 0 0 0 0 0 0 0 0 0 0 0 0 0 0 0 0 0 0 0 0 0 0
0 0 0 0 0 -0 -0 -0 0 0 0 0 0 0 -0 -0 -0 -0 -0 0 0 0 0 0 0 0 0 0 0 0 0 0 0 0 0 0 0 0 0 0 0 0 0 0 0
0 0 0 0 -0 -0 0 -0 -0 -0 -0 -0 0 0 -0 -0 -0 0 0 0 0 0 0 0 0 0 0 0 0 0 0 0 0 0 0 0 0 0 0 0 0 0 0 0 0
0 0 0 0 -0 -0 0 0 0 0 0 0 0 0 0 0 0 0 0 0 0 0 0 0 0 0 0 0 0 0 0 0 0 0 0 0 0 0 0 0 0 0 0 0 0
0 0 0 -0 -0 0 0 -0 0 0 0 0 0 0 0 0 0 0 0 0 0 0 0 0 0 0 0 0 0 0 0 0 0 0 0 0 0 0 0 0 0 0 0 0 0
0 -0 0 0 0 0 0 0 0 0 0 0 0 0 0 0 0 0 0 0 0 0 0 0 0 0 0 0 0 0 0 0 0 0 0 0 0 0 0 0 0 0 0 0 0
0 0 0 0 0 0 0 0 0 0 0 0 0 0 0 0 0 0 0 0 0 0 0 0 0 0 0 0 0 0 0 0 0 0 0 0 0 0 0 0 0 0 0 0 0
0 0 0 0 0 0 0 0 0 0 0 0 0 0 0 0 0 0 0 0 0 0 0 0 0 0 0 0 0 0 0 0 0 0 0 0 0 0 0 0 0 0 0 0 0
Wind_Speed_500mb
26 24 23 23 19 15 13 14 17 23 30 33 34 34 41 35 20 19 20 17 19 19 21 21 21 21 16 12 10 4 9 4 11 14 5 5 2 4 1 2 5 7 7 12 12
26 23 27 30 27 19 18 21 25 28 32 35 35 35 24 28 36 32 26 22 22 20 22 20 19 16 10 7 8 10 7 14 5 3 1 4 3 1 2 6 9 14 16 16 18
26 24 23 27 27 28 28 28 32 31 37 30 23 17 15 16 22 21 20 24 23 23 21 17 17 14 11 10 13 7 5 6 2 1 5 6 6 5 4 8 24 28 26 22 23
23 24 28 32 33 34 34 35 38 36 21 20 19 15 9 7 8 12 19 22 21 22 16 10 10 7 9 8 10 9 8 4 3 7 6 5 14 11 20 17 13 13 17 26 26
27 24 28 33 35 34 32 32 31 28 25 22 18 20 23 33 18 19 20 16 16 16 14 12 10 9 9 8 5 7 4 8 5 4 8 13 16 18 38 30 28 27 22 29 28
32 26 30 32 34 36 38 38 36 32 32 26 25 27 36 41 26 23 19 16 13 8 8 6 12 22 20 9 9 8 9 4 2 7 10 8 11 8 7 4 36 34 33 30 35
33 28 29 29 33 37 38 36 34 28 29 46 50 58 64 30 30 30 24 23 26 23 25 20 9 4 11 8 10 8 3 3 5 10 7 17 11 14 15 23 27 38 38 39 41
33 24 22 26 30 29 29 30 28 28 35 36 40 42 28 29 30 24 32 31 26 28 32 27 24 34 14 17 8 8 9 9 4 17 3 7 18 11 14 16 32 38 36 35 37
28 29 25 26 24 21 21 25 29 25 22 19 14 23 12 19 23 24 21 23 26 26 22 18 20 18 10 7 9 16 1 7 13 9 8 1 22 17 14 24 39 39 39 39 38
21 23 25 27 26 27 34 25 10 15 18 15 13 16 17 19 23 19 16 14 12 10 8 11 19 10 11 11 2 5 6 9 12 8 5 16 46 29 52 43 50 50 52 46 42
21 15 14 4 6 6 3 3 9 30 63 33 27 17 20 17 33 21 8 11 12 20 12 19 18 5 4 3 4 5 5 10 10 2 14 7 26 37 43 13 22 31 36 38 38
20 18 20 24 17 7 7 14 21 27 32 38 41 25 39 24 14 30 22 11 17 7 9 15 6 6 7 4 5 8 6 10 15 4 5 16 39 16 5 4 7 10 14 20 19
14 9 17 28 27 22 27 33 24 18 14 21 34 29 23 24 23 37 24 10 13 14 14 12 2 6 3 7 8 2 1 5 10 18 3 17 14 8 2 4 7 11 8 6 9
13 6 14 16 6 8 8 7 4 5 11 26 23 21 26 7 14 34 25 9 14 7 5 9 5 4 1 7 6 8 2 4 9 11 5 11 8 10 5 2 7 13 12 8 3
25 13 7 18 9 17 9 7 5 6 12 17 15 15 17 15 7 28 27 12 7 4 5 3 11 11 11 3 2 8 4 8 3 5 6 9 6 15 5 6 4 3 9 9 5
39 21 6 6 10 13 12 10 7 14 2 12 14 20 12 24 14 19 17 15 9 6 12 5 3 5 3 6 5 6 3 3 6 4 6 4 6 13 7 6 6 6 5 5 3
49 30 17 8 11 12 11 6 11 14 8 13 9 13 2 14 16 21 10 17 10 10 13 11 4 5 7 7 2 11 10 8 12 9 9 2 3 21 9 7 8 20 13 7 1
18 49 32 19 12 9 4 11 19 6 9 5 5 4 10 14 9 17 7 11 12 11 6 7 13 9 14 7 3 8 7 8 8 5 10 3 12 12 2 0 4 15 16 10 7
9 34 46 26 11 4 1 14 13 11 5 9 5 12 11 10 5 11 10 4 4 10 7 10 9 3 9 6 4 6 7 3 11 2 7 8 16 18 5 5 12 20 21 14 16
13 10 58 24 13 9 14 8 4 5 3 2 6 5 6 13 10 11 10 5 8 7 3 2 9 1 3 1 6 5 2 8 7 8 11 12 13 12 13 18 14 19 32 21 24
19 7 54 26 16 21 9 8 7 3 1 3 5 4 3 1 3 5 4 2 0 2 5 7 7 8 2 7 11 5 3 6 5 7 8 7 15 15 17 14 23 33 32 23 27
25 11 50 24 16 13 6 7 4 2 2 2 3 4 3 3 3 3 5 8 1 3 4 6 7 8 17 2 4 2 8 8 8 12 7 4 20 6 9 10 29 40 27 26 29
9 15 38 26 8 5 2 2 2 3 1 2 4 5 4 5 5 2 3 1 6 8 4 2 5 10 18 2 4 6 9 7 5 4 14 7 16 5 9 12 35 39 34 32 29
8 6 18 31 20 13 8 2 3 2 4 5 6 4 6 5 3 4 2 3 2 2 3 3 3 14 13 16 3 10 10 9 9 5 7 25 52 49 40 15 35 49 46 40 28
11 6 5 4 11 12 5 9 4 3 1 1 5 6 9 2 5 4 5 4 2 5 4 8 9 5 14 26 10 30 38 16 26 25 18 56 21 51 45 16 36 39 37 26 25
6 2 6 7 4 3 1 10 13 6 10 5 6 6 11 9 12 9 9 8 11 6 8 2 6 4 12 14 10 19 37 26 39 37 27 53 64 65 89 63 44 32 23 26 26
6 4 1 1 2 5 7 11 13 13 13 9 15 10 9 18 23 17 17 13 10 14 12 8 7 5 13 6 18 20 24 23 13 13 12 17 44 5 8 11 24 26 28 27 24
Wind_Direction_500mb
44 54 61 62 61 72 86 96 105 115 116 117 121 113 101 93 98 127 95 75 97 110 117 125 129 130 118 84 63 82 66 149 186 164 210 181 177 223 258 184 214 227 236 254 220
39 53 61 66 64 74 90 101 111 115 120 117 120 119 104 92 83 95 84 91 110 114 117 122 136 139 88 45 31 73 100 203 185 55 117 168 219 20 273 216 245 245 241 230 206
38 53 65 63 64 80 92 102 112 113 119 108 112 122 128 106 68 44 92 114 116 116 121 119 122 115 78 42 18 44 133 147 81 72 14 353 320 266 248 260 232 228 230 207 209
50 61 70 73 76 87 94 103 111 119 115 116 116 123 154 159 91 41 97 113 119 124 127 126 131 86 67 63 30 80 51 68 48 22 9 339 308 295 238 242 265 255 240 217 213
55 64 75 81 83 85 94 106 108 106 103 115 123 112 114 91 51 74 93 110 119 130 126 121 121 110 91 76 60 70 66 50 57 9 321 297 279 263 267 262 253 261 229 224 217
54 75 81 82 84 89 96 102 101 98 95 100 103 103 102 73 58 66 88 93 106 136 128 119 102 105 91 64 60 75 104 118 3 342 314 321 279 326 262 321 233 229 238 226 228
59 76 86 88 89 97 96 100 104 101 94 100 97 92 76 71 67 73 88 92 91 88 94 86 82 105 106 94 103 126 78 12 9 357 317 318 287 224 269 268 230 226 223 227 235
62 76 79 92 99 101 95 100 99 102 105 99 79 77 76 68 71 87 85 86 94 91 92 84 83 75 56 109 49 26 44 14 9 349 342 16 270 250 308 233 244 232 231 232 239
65 69 88 92 99 100 99 105 102 104 105 88 82 75 52 62 71 78 85 85 92 91 85 80 76 65 38 57 23 11 16 342 313 51 301 342 273 265 269 266 253 243 245 246 247
77 80 98 109 98 91 88 111 116 113 101 73 49 77 49 28 41 52 71 81 94 93 67 53 60 66 24 52 182 299 335 301 252 327 326 258 263 281 282 271 264 263 264 260 254
56 73 87 150 213 186 200 168 91 62 68 69 66 73 37 58 49 34 61 64 68 58 42 30 67 83 264 18 214 226 244 252 260 39 330 240 286 296 314 293 277 272 271 266 250
43 65 80 81 107 121 148 122 114 116 76 59 61 55 41 37 51 53 55 63 50 59 340 31 76 242 285 329 266 222 268 297 287 314 6 335 302 283 307 35 22 13 342 239 236
32 83 118 111 102 94 91 101 105 102 81 37 34 31 22 31 42 13 25 47 64 46 22 106 177 308 248 40 24 38 291 336 261 327 232 319 293 315 318 80 63 60 74 77 233
39 126 179 175 165 152 114 115 118 78 74 335 355 20 357 19 45 20 24 51 37 157 119 102 332 324 17 77 28 335 144 260 294 17 283 17 276 306 324 106 49 52 76 90 119
47 73 138 193 206 185 183 178 163 136 57 313 332 350 5 66 332 15 21 55 80 62 92 337 13 11 43 341 140 247 299 303 49 85 13 336 77 269 345 257 178 76 97 91 118
38 44 78 127 169 161 160 151 135 44 293 338 333 354 16 19 20 349 25 58 73 79 39 73 48 58 283 288 224 320 118 55 62 98 19 284 82 283 246 235 204 184 135 87 77
33 44 45 114 131 144 147 140 41 93 349 318 334 9 54 352 1 22 40 21 47 45 8 348 8 342 15 322 201 29 43 345 356 9 233 282 19 248 251 260 230 185 182 158 133
42 37 49 68 95 130 144 55 68 247 243 339 329 309 65 357 10 360 50 31 35 41 74 63 329 11 355 52 306 22 108 139 270 280 282 16 233 256 210 275 178 177 179 174 279
27 31 33 36 51 82 170 52 180 197 274 343 319 60 342 8 47 50 41 52 1 15 74 18 284 65 35 360 48 321 46 149 96 59 32 275 286 289 184 248 192 184 193 227 277
33 30 17 22 38 79 72 156 163 238 305 206 75 81 14 328 29 40 6 326 9 47 82 131 331 346 285 25 53 92 139 27 16 338 302 284 279 243 258 234 218 208 219 247 282
22 58 6 17 50 58 96 195 218 219 263 38 142 96 94 353 25 34 347 222 27 331 71 136 113 278 91 185 183 51 17 44 135 149 209 288 267 219 231 214 203 215 221 261 288
27 41 6 26 37 51 76 184 130 163 56 42 80 104 162 161 130 95 227 210 200 175 163 209 161 252 237 106 354 333 212 164 132 267 235 162 266 245 242 247 203 209 247 282 294
43 24 22 39 84 20 28 42 147 137 70 85 97 48 106 134 59 277 260 68 1 15 21 57 337 347 340 52 65 209 215 161 97 59 225 154 265 320 295 261 221 239 262 280 275
19 28 29 53 72 114 135 285 13 141 151 138 150 169 156 48 16 243 295 65 72 108 58 91 197 184 214 231 130 251 223 201 147 156 210 233 270 276 277 251 256 259 271 271 254
34 70 35 324 23 89 99 160 126 302 183 212 360 224 157 53 339 261 212 154 173 188 161 131 222 229 252 267 221 261 255 196 206 220 213 270 250 273 276 270 282 287 286 246 246
49 81 83 97 102 127 78 211 174 248 157 220 190 181 172 180 200 235 176 209 213 186 166 46 283 43 286 276 275 272 261 226 235 251 251 261 277 267 274 277 269 263 254 252 253
63 85 20 115 110 89 221 181 214 171 209 217 192 149 207 239 243 246 226 220 218 167 187 150 142 69 264 345 324 286 253 188 205 215 179 208 247 336 274 228 254 269 259 258 272
Wind_Speed_850mb
26 24 23 23 19 15 13 14 17 23 30 33 34 34 41 35 20 19 20 17 19 19 21 21 21 21 16 12 10 4 9 4 11 14 5 5 2 4 1 2 5 7 7 12 12
26 23 27 30 27 19 18 21 25 28 32 35 35 35 24 28 36 32 26 22 22 20 22 20 19 16 10 7 8 10 7 14 5 3 1 4 3 1 2 6 9 14 16 16 18
26 24 23 27 27 28 28 28 32 31 37 30 23 17 15 16 22 21 20 24 23 23 21 17 17 14 11 10 13 7 5 6 2 1 5 6 6 5 4 8 24 28 26 22 23
23 24 28 32 33 34 34 35 38 36 21 20 19 15 9 7 8 12 19 22 21 22 16 10 10 7 9 8 10 9 8 4 3 7 6 5 14 11 20 17 13 13 17 26 26
27 24 28 33 35 34 32 32 31 28 25 22 18 20 23 33 18 19 20 16 16 16 14 12 10 9 9 8 5 7 4 8 5 4 8 13 16 18 38 30 28 27 22 29 28
32 26 30 32 34 36 38 38 36 32 32 26 25 27 36 41 26 23 19 16 13 8 8 6 12 22 20 9 9 8 9 4 2 7 10 8 11 8 7 4 36 34 33 30 35
33 28 29 29 33 37 38 36 34 28 29 46 50 58 64 30 30 30 24 23 26 23 25 20 9 4 11 8 10 8 3 3 5 10 7 17 11 14 15 23 27 38 38 39 41
33 24 22 26 30 29 29 30 28 28 35 36 40 42 28 29 30 24 32 31 26 28 32 27 24 34 14 17 8 8 9 9 4 17 3 7 18 11 14 16 32 38 36 35 37
28 29 25 26 24 21 21 25 29 25 22 19 14 23 12 19 23 24 21 23 26 26 22 18 20 18 10 7 9 16 1 7 13 9 8 1 22 17 14 24 39 39 39 39 38
21 23 25 27 26 27 34 25 10 15 18 15 13 16 17 19 23 19 16 14 12 10 8 11 19 10 11 11 2 5 6 9 12 8 5 16 46 29 52 43 50 50 52 46 42
21 15 14 4 6 6 3 3 9 30 63 33 27 17 20 17 33 21 8 11 12 20 12 19 18 5 4 3 4 5 5 10 10 2 14 7 26 37 43 13 22 31 36 38 38
20 18 20 24 17 7 7 14 21 27 32 38 41 25 39 24 14 30 22 11 17 7 9 15 6 6 7 4 5 8 6 10 15 4 5 16 39 16 5 4 7 10 14 20 19
14 9 17 28 27 22 27 33 24 18 14 21 34 29 23 24 23 37 24 10 13 14 14 12 2 6 3 7 8 2 1 5 10 18 3 17 14 8 2 4 7 11 8 6 9
13 6 14 16 6 8 8 7 4 5 11 26 23 21 26 7 14 34 25 9 14 7 5 9 5 4 1 7 6 8 2 4 9 11 5 11 8 10 5 2 7 13 12 8 3
25 13 7 18 9 17 9 7 5 6 12 17 15 15 17 15 7 28 27 12 7 4 5 3 11 11 11 3 2 8 4 8 3 5 6 9 6 15 5 6 4 3 9 9 5
39 21 6 6 10 13 12 10 7 14 2 12 14 20 12 24 14 19 17 15 9 6 12 5 3 5 3 6 5 6 3 3 6 4 6 4 6 13 7 6 6 6 5 5 3
49 30 17 8 11 12 11 6 11 14 8 13 9 13 2 14 16 21 10 17 10 10 13 11 4 5 7 7 2 11 10 8 12 9 9 2 3 21 9 7 8 20 13 7 1
18 49 32 19 12 9 4 11 19 6 9 5 5 4 10 14 9 17 7 11 12 11 6 7 13 9 14 7 3 8 7 8 8 5 10 3 12 12 2 0 4 15 16 10 7
9 34 46 26 11 4 1 14 13 11 5 9 5 12 11 10 5 11 10 4 4 10 7 10 9 3 9 6 4 6 7 3 11 2 7 8 16 18 5 5 12 20 21 14 16
13 10 58 24 13 9 14 8 4 5 3 2 6 5 6 13 10 11 10 5 8 7 3 2 9 1 3 1 6 5 2 8 7 8 11 12 13 12 13 18 14 19 32 21 24
19 7 54 26 16 21 9 8 7 3 1 3 5 4 3 1 3 5 4 2 0 2 5 7 7 8 2 7 11 5 3 6 5 7 8 7 15 15 17 14 23 33 32 23 27
25 11 50 24 16 13 6 7 4 2 2 2 3 4 3 3 3 3 5 8 1 3 4 6 7 8 17 2 4 2 8 8 8 12 7 4 20 6 9 10 29 40 27 26 29
9 15 38 26 8 5 2 2 2 3 1 2 4 5 4 5 5 2 3 1 6 8 4 2 5 10 18 2 4 6 9 7 5 4 14 7 16 5 9 12 35 39 34 32 29
8 6 18 31 20 13 8 2 3 2 4 5 6 4 6 5 3 4 2 3 2 2 3 3 3 14 13 16 3 10 10 9 9 5 7 25 52 49 40 15 35 49 46 40 28
11 6 5 4 11 12 5 9 4 3 1 1 5 6 9 2 5 4 5 4 2 5 4 8 9 5 14 26 10 30 38 16 26 25 18 56 21 51 45 16 36 39 37 26 25
6 2 6 7 4 3 1 10 13 6 10 5 6 6 11 9 12 9 9 8 11 6 8 2 6 4 12 14 10 19 37 26 39 37 27 53 64 65 89 63 44 32 23 26 26
6 4 1 1 2 5 7 11 13 13 13 9 15 10 9 18 23 17 17 13 10 14 12 8 7 5 13 6 18 20 24 23 13 13 12 17 44 5 8 11 24 26 28 27 24
Wind_Direction_850mb
44 54 61 62 61 72 86 96 105 115 116 117 121 113 101 93 98 127 95 75 97 110 117 125 129 130 118 84 63 82 66 149 186 164 210 181 177 223 258 184 214 227 236 254 220
39 53 61 66 64 74 90 101 111 115 120 117 120 119 104 92 83 95 84 91 110 114 117 122 136 139 88 45 31 73 100 203 185 55 117 168 219 20 273 216 245 245 241 230 206
38 53 65 63 64 80 92 102 112 113 119 108 112 122 128 106 68 44 92 114 116 116 121 119 122 115 78 42 18 44 133 147 81 72 14 353 320 266 248 260 232 228 230 207 209
50 61 70 73 76 87 94 103 111 119 115 116 116 123 154 159 91 41 97 113 119 124 127 126 131 86 67 63 30 80 51 68 48 22 9 339 308 295 238 242 265 255 240 217 213
55 64 75 81 83 85 94 106 108 106 103 115 123 112 114 91 51 74 93 110 119 130 126 121 121 110 91 76 60 70 66 50 57 9 321 297 279 263 267 262 253 261 229 224 217
54 75 81 82 84 89 96 102 101 98 95 100 103 103 102 73 58 66 88 93 106 136 128 119 102 105 91 64 60 75 104 118 3 342 314 321 279 326 262 321 233 229 238 226 228
59 76 86 88 89 97 96 100 104 101 94 100 97 92 76 71 67 73 88 92 91 88 94 86 82 105 106 94 103 126 78 12 9 357 317 318 287 224 269 268 230 226 223 227 235
62 76 79 92 99 101 95 100 99 102 105 99 79 77 76 68 71 87 85 86 94 91 92 84 83 75 56 109 49 26 44 14 9 349 342 16 270 250 308 233 244 232 231 232 239
65 69 88 92 99 100 99 105 102 104 105 88 82 75 52 62 71 78 85 85 92 91 85 80 76 65 38 57 23 11 16 342 313 51 301 342 273 265 269 266 253 243 245 246 247
77 80 98 109 98 91 88 111 116 113 101 73 49 77 49 28 41 52 71 81 94 93 67 53 60 66 24 52 182 299 335 301 252 327 326 258 263 281 282 271 264 263 264 260 254
56 73 87 150 213 186 200 168 91 62 68 69 66 73 37 58 49 34 61 64 68 58 42 30 67 83 264 18 214 226 244 252 260 39 330 240 286 296 314 293 277 272 271 266 250
43 65 80 81 107 121 148 122 114 116 76 59 61 55 41 37 51 53 55 63 50 59 340 31 76 242 285 329 266 222 268 297 287 314 6 335 302 283 307 35 22 13 342 239 236
32 83 118 111 102 94 91 101 105 102 81 37 34 31 22 31 42 13 25 47 64 46 22 106 177 308 248 40 24 38 291 336 261 327 232 319 293 315 318 80 63 60 74 77 233
39 126 179 175 165 152 114 115 118 78 74 335 355 20 357 19 45 20 24 51 37 157 119 102 332 324 17 77 28 335 144 260 294 17 283 17 276 306 324 106 49 52 76 90 119
47 73 138 193 206 185 183 178 163 136 57 313 332 350 5 66 332 15 21 55 80 62 92 337 13 11 43 341 140 247 299 303 49 85 13 336 77 269 345 257 178 76 97 91 118
38 44 78 127 169 161 160 151 135 44 293 338 333 354 16 19 20 349 25 58 73 79 39 73 48 58 283 288 224 320 118 55 62 98 19 284 82 283 246 235 204 184 135 87 77
33 44 45 114 131 144 147 140 41 93 349 318 334 9 54 352 1 22 40 21 47 45 8 348 8 342 15 322 201 29 43 345 356 9 233 282 19 248 251 260 230 185 182 158 133
42 37 49 68 95 130 144 55 68 247 243 339 329 309 65 357 10 360 50 31 35 41 74 63 329 11 355 52 306 22 108 139 270 280 282 16 233 256 210 275 178 177 179 174 279
27 31 33 36 51 82 170 52 180 197 274 343 319 60 342 8 47 50 41 52 1 15 74 18 284 65 35 360 48 321 46 149 96 59 32 275 286 289 184 248 192 184 193 227 277
33 30 17 22 38 79 72 156 163 238 305 206 75 81 14 328 29 40 6 326 9 47 82 131 331 346 285 25 53 92 139 27 16 338 302 284 279 243 258 234 218 208 219 247 282
22 58 6 17 50 58 96 195 218 219 263 38 142 96 94 353 25 34 347 222 27 331 71 136 113 278 91 185 183 51 17 44 135 149 209 288 267 219 231 214 203 215 221 261 288
27 41 6 26 37 51 76 184 130 163 56 42 80 104 162 161 130 95 227 210 200 175 163 209 161 252 237 106 354 333 212 164 132 267 235 162 266 245 242 247 203 209 247 282 294
43 24 22 39 84 20 28 42 147 137 70 85 97 48 106 134 59 277 260 68 1 15 21 57 337 347 340 52 65 209 215 161 97 59 225 154 265 320 295 261 221 239 262 280 275
19 28 29 53 72 114 135 285 13 141 151 138 150 169 156 48 16 243 295 65 72 108 58 91 197 184 214 231 130 251 223 201 147 156 210 233 270 276 277 251 256 259 271 271 254
34 70 35 324 23 89 99 160 126 302 183 212 360 224 157 53 339 261 212 154 173 188 161 131 222 229 252 267 221 261 255 196 206 220 213 270 250 273 276 270 282 287 286 246 246
49 81 83 97 102 127 78 211 174 248 157 220 190 181 172 180 200 235 176 209 213 186 166 46 283 43 286 276 275 272 261 226 235 251 251 261 277 267 274 277 269 263 254 252 253
63 85 20 115 110 89 221 181 214 171 209 217 192 149 207 239 243 246 226 220 218 167 187 150 142 69 264 345 324 286 253 188 205 215 179 208 247 336 274 228 254 269 259 258 272